GW3210 Weather Reports


Display with metric or nautical units.
time (UTC)temp
F
wind
direction
speed
MPH
gust
MPH
rain 1hr
in
rain 24hr
in
rain mn
in
humidity
%
barometer
mb
20260902095616 59 135 1.0 3.0 0.00 0.00 0.00 61 1012.6
20260902094616 59 180 1.0 2.0 0.00 0.00 0.00 61 1012.7
20260902093617 59 135 3.0 7.0 0.00 0.00 0.00 62 1012.9
20260902092616 59 180 2.0 3.0 0.00 0.00 0.00 62 1012.8
20260902091617 60 158 2.0 4.0 0.00 0.00 0.00 61 1013.0
20260902090616 60 180 4.0 7.0 0.00 0.00 0.00 61 1013.1
20260902085636 60 135 3.0 5.0 0.00 0.00 0.00 61 1013.1
20260902084617 60 158 4.0 5.0 0.00 0.00 0.00 61 1013.1
20260902083617 60 158 3.0 4.0 0.00 0.00 0.00 61 1013.1
20260902082616 60 158 1.0 3.0 0.00 0.00 0.00 60 1013.1
20260902081616 61 158 2.0 4.0 0.00 0.00 0.00 60 1013.0
20260902080636 61 158 1.0 2.0 0.00 0.00 0.00 60 1013.0
20260902075616 61 0.0 1.0 0.00 0.00 0.00 59 1013.1
20260902074617 61 180 3.0 5.0 0.00 0.00 0.00 59 1013.2
20260902073616 61 135 1.0 2.0 0.00 0.00 0.00 59 1013.2
20260902065617 61 158 2.0 4.0 0.00 0.00 0.00 58 1013.5
20260902064617 61 180 2.0 4.0 0.00 0.00 0.00 58 1013.6
20260902063637 61 158 2.0 4.0 0.00 0.00 0.00 58 1013.6
20260902062617 61 135 1.0 2.0 0.00 0.00 0.00 58 1013.6
20260902061617 62 158 3.0 5.0 0.00 0.00 0.00 58 1013.5
20260902060616 62 158 2.0 2.0 0.00 0.00 0.00 57 1013.5
20260902055617 62 158 3.0 4.0 0.00 0.00 0.00 57 1013.7
20260902054637 62 203 2.0 5.0 0.00 0.00 0.00 57 1013.8
20260902053617 62 225 2.0 3.0 0.00 0.00 0.00 57 1013.8
20260902052617 62 158 1.0 4.0 0.00 0.00 0.00 57 1013.9
20260902051617 62 158 2.0 6.0 0.00 0.00 0.00 56 1013.7
20260902050617 62 158 1.0 2.0 0.00 0.00 0.00 56 1013.6
20260902045717 63 203 1.0 3.0 0.00 0.00 0.00 56 1013.5
20260902044617 63 180 2.0 5.0 0.00 0.00 0.00 56 1013.5
20260902043638 63 135 2.0 3.0 0.00 0.00 0.00 55 1013.5
20260902042617 63 270 3.0 5.0 0.00 0.00 0.00 55 1013.4
20260902041617 63 270 4.0 6.0 0.00 0.00 0.00 55 1013.4
20260902040617 63 248 1.0 2.0 0.00 0.00 0.00 55 1013.5
20260902035617 63 225 2.0 3.0 0.00 0.00 0.00 54 1013.3
20260902034617 64 248 2.0 3.0 0.00 0.00 0.00 54 1013.2
20260902033656 64 270 5.0 8.0 0.00 0.00 0.00 53 1013.1
20260902032617 64 270 4.0 7.0 0.00 0.00 0.00 53 1013.1
20260902031616 64 203 2.0 4.0 0.00 0.00 0.00 53 1013.2
20260902030617 64 248 2.0 3.0 0.00 0.00 0.00 52 1013.2
20260902025616 65 248 3.0 5.0 0.00 0.00 0.00 52 1013.2
20260902024616 65 225 3.0 6.0 0.00 0.00 0.00 52 1013.1
20260902023616 65 248 4.0 8.0 0.00 0.00 0.00 52 1013.0
20260902022616 65 180 1.0 2.0 0.00 0.00 0.00 51 1013.0
20260902021616 66 225 1.0 3.0 0.00 0.00 0.00 50 1012.9
20260902020617 66 225 3.0 4.0 0.00 0.00 0.00 50 1013.0
20260902015617 66 248 3.0 4.0 0.00 0.00 0.00 50 1013.0
20260902014616 66 0.0 1.0 0.00 0.00 0.00 50 1012.8
20260902013616 66 293 2.0 7.0 0.00 0.00 0.00 50 1012.9
20260902012616 66 225 3.0 4.0 0.00 0.00 0.00 49 1012.9
20260902011636 66 270 3.0 7.0 0.00 0.00 0.00 48 1012.9
20260902010616 67 225 4.0 6.0 0.00 0.00 0.00 48 1012.9
20260902005616 67 248 1.0 2.0 0.00 0.00 0.00 49 1012.6
20260902004656 67 270 2.0 4.0 0.00 0.00 0.00 49 1012.6
20260902003616 68 270 2.0 3.0 0.00 0.00 0.00 48 1012.5
20260902002618 68 270 2.0 4.0 0.00 0.00 0.00 47 1012.5
20260902001616 68 315 2.0 5.0 0.00 0.00 0.00 47 1012.5
20260902000617 69 293 3.0 6.0 0.00 0.00 0.00 48 1012.4
20260901235616 69 270 4.0 5.0 0.00 0.00 0.00 47 1012.7
20260901234636 69 203 3.0 5.0 0.00 0.00 0.00 47 1012.7
20260901233616 68 248 4.0 7.0 0.00 0.00 0.00 48 1012.6
20260901232616 68 225 1.0 2.0 0.00 0.00 0.00 49 1012.8
20260901231616 68 293 2.0 3.0 0.00 0.00 0.00 49 1012.9
20260901230616 68 293 5.0 7.0 0.00 0.00 0.00 48 1012.9
20260901225616 68 248 2.0 4.0 0.00 0.00 0.00 49 1012.9
20260901224636 67 270 3.0 7.0 0.00 0.00 0.00 50 1012.9
20260901223616 67 248 3.0 5.0 0.00 0.00 0.00 49 1013.0
20260901222616 67 248 4.0 6.0 0.00 0.00 0.00 49 1013.0
20260901221616 68 315 3.0 4.0 0.00 0.00 0.00 50 1013.0
20260901220616 67 293 4.0 7.0 0.00 0.00 0.00 50 1013.0
20260901215616 67 270 3.0 4.0 0.00 0.00 0.00 51 1012.9
20260901214616 66 248 2.0 3.0 0.00 0.00 0.00 52 1012.9
20260901213636 66 225 2.0 3.0 0.00 0.00 0.00 53 1013.0
20260901212616 65 248 3.0 6.0 0.00 0.00 0.00 53 1013.1
20260901211616 65 180 1.0 2.0 0.00 0.00 0.00 55 1013.2
20260901210616 64 158 1.0 2.0 0.00 0.00 0.00 55 1013.2
20260901205615 64 180 1.0 2.0 0.00 0.00 0.00 55 1013.2
20260901204616 64 135 2.0 3.0 0.00 0.00 0.00 55 1013.2
20260901203658 64 158 1.0 2.0 0.00 0.00 0.00 54 1013.2
20260901202616 65 135 3.0 4.0 0.00 0.00 0.00 54 1013.3
20260901201616 65 135 4.0 5.0 0.00 0.00 0.00 54 1013.3
20260901200616 65 180 1.0 2.0 0.00 0.00 0.00 54 1013.3
20260901195636 64 180 1.0 2.0 0.00 0.00 0.00 57 1013.3
20260901194616 64 158 3.0 4.0 0.00 0.00 0.00 56 1013.5
20260901193616 64 203 1.0 1.0 0.00 0.00 0.00 55 1013.6
20260901192615 64 248 3.0 6.0 0.00 0.00 0.00 57 1013.7
20260901191616 64 270 3.0 4.0 0.00 0.00 0.00 58 1013.7
20260901190615 63 158 3.0 4.0 0.00 0.00 0.00 59 1013.8
20260901185618 63 0.0 1.0 0.00 0.00 0.00 59 1013.9
20260901184616 62 225 2.0 4.0 0.00 0.00 0.00 59 1013.9
20260901183615 62 270 2.0 3.0 0.00 0.00 0.00 60 1014.0
20260901182635 62 270 1.0 2.0 0.00 0.00 0.00 61 1013.9
20260901181616 61 270 4.0 6.0 0.00 0.00 0.00 64 1014.0
20260901180615 60 270 2.0 5.0 0.00 0.00 0.00 64 1014.0
20260901175635 59 180 2.0 4.0 0.00 0.00 0.00 66 1014.1
20260901174615 59 158 1.0 3.0 0.00 0.00 0.00 67 1014.2
20260901173615 59 225 2.0 3.0 0.00 0.00 0.00 68 1014.0
20260901172615 58 248 1.0 2.0 0.00 0.00 0.00 68 1014.0
20260901171615 58 158 3.0 4.0 0.00 0.00 0.00 68 1014.0
20260901170615 58 203 1.0 2.0 0.00 0.00 0.00 68 1014.0
20260901165635 58 158 3.0 4.0 0.00 0.00 0.00 68 1013.9
20260901164615 58 158 3.0 5.0 0.00 0.00 0.00 68 1013.8
20260901163635 58 203 1.0 2.0 0.00 0.00 0.00 67 1013.9
20260901162615 58 135 4.0 5.0 0.00 0.00 0.00 66 1013.8
20260901161615 58 180 2.0 4.0 0.00 0.00 0.00 66 1013.8
20260901160617 58 113 2.0 4.0 0.00 0.00 0.00 65 1013.8
20260901155617 59 158 2.0 4.0 0.00 0.00 0.00 65 1013.8
20260901154637 59 158 3.0 4.0 0.00 0.00 0.00 64 1013.9
20260901153617 59 158 2.0 3.0 0.00 0.00 0.00 63 1013.9
20260901152617 59 158 2.0 4.0 0.00 0.00 0.00 63 1013.8
20260901151617 59 135 3.0 5.0 0.00 0.00 0.00 63 1013.7
20260901150617 59 135 4.0 5.0 0.00 0.00 0.00 63 1013.6
20260901145657 59 158 2.0 5.0 0.00 0.00 0.00 63 1013.6
20260901144617 58 135 3.0 5.0 0.00 0.00 0.00 63 1013.5
20260901143617 58 0.0 1.0 0.00 0.00 0.00 63 1013.6
20260901142657 58 158 2.0 3.0 0.00 0.00 0.00 64 1013.6
20260901141637 58 0.0 1.0 0.00 0.00 0.00 64 1013.7
20260901140617 58 135 2.0 3.0 0.00 0.00 0.00 64 1013.7
20260901135617 58 135 1.0 2.0 0.00 0.00 0.00 64 1013.6
20260901134617 58 135 1.0 2.0 0.00 0.00 0.00 64 1013.6
20260901133637 58 0.0 1.0 0.00 0.00 0.00 64 1013.5
20260901132617 58 135 1.0 2.0 0.00 0.00 0.00 64 1013.5
20260901132517 58 135 1.0 2.0 0.00 0.00 0.00 64 1013.6
20260901131517 58 0.0 2.0 0.00 0.00 0.00 65 1013.5
20260901130517 58 0.0 1.0 0.00 0.00 0.00 65 1013.6
20260901125516 58 0.0 1.0 0.00 0.00 0.00 65 1013.4
20260901124516 57 0.0 0.0 0.00 0.00 0.00 65 1013.5
20260901123517 57 158 1.0 2.0 0.00 0.00 0.00 65 1013.5
20260901122517 57 180 2.0 4.0 0.00 0.00 0.00 65 1013.5
20260901121516 57 135 3.0 6.0 0.00 0.00 0.00 65 1013.6
20260901120536 57 158 5.0 9.0 0.00 0.00 0.00 65 1013.6
20260901115516 57 135 4.0 7.0 0.00 0.00 0.00 65 1013.5
20260901114517 57 135 3.0 4.0 0.00 0.00 0.00 65 1013.4
20260901113516 57 135 3.0 5.0 0.00 0.00 0.00 65 1013.3
20260901112537 57 135 2.0 5.0 0.00 0.00 0.00 65 1013.2
20260901111516 58 158 3.0 6.0 0.00 0.00 0.00 65 1013.2
20260901110517 58 135 3.0 4.0 0.00 0.00 0.00 64 1013.1
20260901105516 58 135 2.0 5.0 0.00 0.00 0.00 64 1013.1
20260901104517 58 158 2.0 3.0 0.00 0.00 0.00 64 1013.1
20260901103516 58 158 3.0 6.0 0.00 0.00 0.00 64 1013.1
20260901102516 58 158 3.0 5.0 0.00 0.00 0.00 64 1013.1
20260901101516 59 135 3.0 5.0 0.00 0.00 0.00 63 1013.0
20260901100536 59 135 4.0 5.0 0.00 0.00 0.00 63 1013.0